FLOCK 3P-18

Last updated on Wed Feb 14 2018 16:20:18 GMT+0000 (Coordinated Universal Time)

1 41957U 17008K 18045.44737100 .00003096 00000-0 13015-3 0 9997 2 41957 97.4646 110.9111 0010478 66.9583 293.2758 15.24133514 55257

Satellite not in orbit

FLOCK 3P-18